Social login voor leden:

1. METAR EBOS

METAR EBOS 211020Z 14008KT 8000 NSC 04/M00 Q1016 NOSIG

2. TAF EBOS

TAF EBOS 211020Z 14008KT 8000 NSC 04/M00 Q1016 NOSIG

3. NOTAMS EBOS

Klik hier voor een overzicht van de notams.

Deze pagina promoten

Noordzee Vliegclub - Nieuwpoortsesteenweg 947 8400 Oostende - Tel 059 30 04 79 - Dit e-mailadres wordt beveiligd tegen spambots. JavaScript dient ingeschakeld te zijn om het te bekijken.

 - Copyright 2017